Regional Weather Roundup
Issued by NWS State College, PA

Home | Current Version | Previous Version | Text Only | Print | Product List | Glossary On
Versions: 1 2 3 4 5 6 7 8 9 10 11 12 13 14 15 16 17 18 19 20 21 22 23 24 25 26 27 28 29 30 31 32 33 34 35 36 37 38 39 40 41 42 43 44 45 46 47 48 49 50
000
ASUS41 KCTP 250910
RWRCTP

REGIONAL WEATHER ROUNDUP
NATIONAL WEATHER SERVICE STATE COLLEGE PA
500 AM EDT WED APR 25 2018

Note: "fair" indicates few or no clouds below 12,000 feet with no
significant weather and/or obstructions to visibility.

* = STATION THAT DOES NOT REPORT PRECIPITATION /E.G. RAIN...SNOW...ETC/
    THUNDER OR FOG.

PAZ002>004-007>009-013>016-020>023-029>032-251000-
WESTERN PENNSYLVANIA

CITY           SKY/WX    TMP DP  RH WIND       PRES   REMARKS
ERIE           LGT RAIN  49  46  90 NE5       29.89F FOG
MEADVILLE      LGT RAIN  48  48 100 VRB5      29.87F
FRANKLIN*      CLOUDY    48  46  93 E6        29.88S
NEW CASTLE     CLOUDY    50  50 100 E3        29.87F
BEAVER COUNTY  NOT AVBL
BUTLER*        CLOUDY    50  47  89 E7        29.86F
PITTSBURGH INT CLOUDY    50  49  96 NE3       29.84F
PITTSBURGH     MOCLDY    49  49 100 CALM      29.84F
INDIANA*       CLOUDY    50  48  93 E5        29.89F
LATROBE        MOCLDY    52  48  87 E3        29.85F
WASHINGTON CO* CLOUDY    49  48  97 NE3       29.86F
$$

PAZ004>006-010>012-017>019-024>028-033>037-041-042-045-046-049>053-251000-
CENTRAL PENNSYLVANIA

CITY           SKY/WX    TMP DP  RH WIND       PRES   REMARKS
BRADFORD       CLOUDY    48  45  89 SE10      29.89F
DUBOIS         CLOUDY    48  47  96 E7        29.86F
CLEARFIELD     CLOUDY    48  47  96 VRB6      29.89F FOG
JOHNSTOWN      CLOUDY    47  45  93 E6        29.84F FOG
ALTOONA        CLOUDY    50  47  89 NE6       29.87F
STATE COLLEGE  CLOUDY    48  48  99 N6        29.89F FOG
WILLIAMSPORT   LGT RAIN  50  49  96 N3        29.90F FOG
SELINSGROVE    CLOUDY    50  49  96 N3        29.90F FOG
FT INDIANTOWN  DRIZZLE   52  52  98 NE7       29.88F
CAPITAL CITY   CLOUDY    54 N/A N/A E6        29.87F
HARRISBURG     LGT RAIN  53  51  93 CALM      29.87F
YORK           LGT RAIN  52  52 100 NE5       29.86F FOG
$$

PAZ038>040-043-044-047-048-054-055-060>062-067>071-251000-
EASTERN PENNSYLVANIA

CITY           SKY/WX    TMP DP  RH WIND       PRES   REMARKS
SCRANTON       LGT RAIN  49  48  97 NE8       29.93F
MOUNT POCONO   RAIN      46  46 100 E12G18    29.94F VSB 1/2
ALLENTOWN      LGT RAIN  55  51  86 E12       29.92F FOG
QUAKERTOWN*    CLOUDY    54  54 100 NE6G13    29.91F FOG
READING        HVY RAIN  54  54 100 E6        29.88F FOG
LANCASTER      RAIN      54  53  97 E10       29.86F FOG
COATESVILLE    CLOUDY    54  54 100 E14G20    29.88F
POTTSTOWN      LGT RAIN  53  53 100 E5        29.91F FOG
BLUE BELL      CLOUDY    54  54 100 E10       29.92F
DOYLESTOWN     LGT RAIN  54  53  97 VRB3      29.91F FOG
WILLOW GROVE   NOT AVBL
NORTH PHILA    LGT RAIN  57  54  89 E13       29.93S FOG
PHILADELPHIA   CLOUDY    55  54  96 E12       29.89F FOG
$$



USA.gov is the U.S. government's official web portal to all federal, state and local government web resources and services.